Time,TemperatureF,DewpointF,PressureIn,WindDirection,WindDirectionDegrees,WindSpeedMPH,WindSpeedGustMPH,Humidity,HourlyPrecipIn,Conditions,Clouds,dailyrainin,SoftwareType,DateUTC
2013-03-16 00:03:00,70.0,-99.9,29.97,North,6,3.0,7.0,-999,-99.99,,,-99.99,,2013-03-16 10:03:00,
2013-03-16 00:12:00,70.0,-99.9,29.98,NNW,336,4.0,8.0,-999,-99.99,,,-99.99,,2013-03-16 10:12:00,
2013-03-16 00:23:00,70.0,-99.9,29.98,NNW,335,3.0,6.0,-999,-99.99,,,-99.99,,2013-03-16 10:23:00,
2013-03-16 00:32:00,70.0,-99.9,29.98,North,7,4.0,7.0,-999,-99.99,,,-99.99,,2013-03-16 10:32:00,
2013-03-16 00:42:00,70.0,-99.9,29.98,North,355,3.0,6.0,-999,-99.99,,,-99.99,,2013-03-16 10:42:00,
2013-03-16 00:53:00,69.0,-99.9,29.97,North,5,4.0,8.0,-999,-99.99,,,-99.99,,2013-03-16 10:53:00,
2013-03-16 01:03:00,69.0,-99.9,29.97,NNW,329,5.0,7.0,-999,-99.99,,,-99.99,,2013-03-16 11:03:00,
2013-03-16 01:12:00,69.0,-99.9,29.97,NNW,340,5.0,8.0,-999,-99.99,,,-99.99,,2013-03-16 11:12:00,
2013-03-16 01:22:00,69.0,-99.9,29.96,North,351,3.0,6.0,-999,-99.99,,,-99.99,,2013-03-16 11:22:00,
2013-03-16 01:33:00,69.0,-99.9,29.96,NNW,342,5.0,9.0,-999,-99.99,,,-99.99,,2013-03-16 11:33:00,
2013-03-16 01:43:00,69.0,-99.9,29.95,NNW,339,6.0,9.0,-999,-99.99,,,-99.99,,2013-03-16 11:43:00,
2013-03-16 01:53:00,69.0,-99.9,29.95,NNW,346,4.0,9.0,-999,-99.99,,,-99.99,,2013-03-16 11:53:00,
2013-03-16 02:02:00,69.0,-99.9,29.95,NNW,339,5.0,8.0,-999,-99.99,,,-99.99,,2013-03-16 12:02:00,
2013-03-16 02:12:00,69.0,-99.9,29.95,NNW,340,4.0,8.0,-999,-99.99,,,-99.99,,2013-03-16 12:12:00,
2013-03-16 02:23:00,69.0,-99.9,29.95,NNW,335,7.0,11.0,-999,-99.99,,,-99.99,,2013-03-16 12:23:00,
2013-03-16 02:32:00,69.0,-99.9,29.95,NNW,335,4.0,12.0,-999,-99.99,,,-99.99,,2013-03-16 12:32:00,
2013-03-16 02:43:00,69.0,-99.9,29.96,NNW,334,7.0,10.0,-999,-99.99,,,-99.99,,2013-03-16 12:43:00,
2013-03-16 02:53:00,69.0,-99.9,29.95,NNW,345,4.0,9.0,-999,-99.99,,,-99.99,,2013-03-16 12:53:00,
2013-03-16 03:02:00,69.0,-99.9,29.94,North,354,6.0,11.0,-999,-99.99,,,-99.99,,2013-03-16 13:02:00,
2013-03-16 03:12:00,69.0,-99.9,29.94,North,354,8.0,10.0,-999,-99.99,,,-99.99,,2013-03-16 13:12:00,
2013-03-16 03:23:00,69.0,-99.9,29.94,North,1,6.0,10.0,-999,-99.99,,,-99.99,,2013-03-16 13:23:00,
2013-03-16 03:32:00,69.0,-99.9,29.94,North,352,3.0,8.0,-999,-99.99,,,-99.99,,2013-03-16 13:32:00,
2013-03-16 03:43:00,69.0,-99.9,29.94,North,355,5.0,7.0,-999,-99.99,,,-99.99,,2013-03-16 13:43:00,
2013-03-16 03:53:00,69.0,-99.9,29.94,NNW,337,7.0,9.0,-999,-99.99,,,-99.99,,2013-03-16 13:53:00,
2013-03-16 04:03:00,69.0,-99.9,29.94,NNW,331,6.0,9.0,-999,-99.99,,,-99.99,,2013-03-16 14:03:00,
2013-03-16 04:12:00,69.0,-99.9,29.93,NNW,340,2.0,6.0,-999,-99.99,,,-99.99,,2013-03-16 14:12:00,
2013-03-16 04:22:00,69.0,-99.9,29.93,NNW,344,5.0,8.0,-999,-99.99,,,-99.99,,2013-03-16 14:22:00,
2013-03-16 04:32:00,69.0,-99.9,29.93,NNW,332,4.0,6.0,-999,-99.99,,,-99.99,,2013-03-16 14:32:00,
2013-03-16 04:42:00,69.0,-99.9,29.93,NNW,344,6.0,9.0,-999,-99.99,,,-99.99,,2013-03-16 14:42:00,
2013-03-16 04:53:00,69.0,-99.9,29.94,North,350,3.0,8.0,-999,-99.99,,,-99.99,,2013-03-16 14:53:00,
2013-03-16 05:03:00,69.0,-99.9,29.94,North,351,5.0,10.0,-999,-99.99,,,-99.99,,2013-03-16 15:03:00,
2013-03-16 05:13:00,68.0,-99.9,29.93,NNW,345,4.0,8.0,-999,-99.99,,,-99.99,,2013-03-16 15:13:00,
2013-03-16 05:23:00,68.0,-99.9,29.94,North,352,5.0,9.0,-999,-99.99,,,-99.99,,2013-03-16 15:23:00,
2013-03-16 05:33:00,68.0,-99.9,29.94,NNW,346,7.0,11.0,-999,-99.99,,,-99.99,,2013-03-16 15:33:00,
2013-03-16 05:44:00,68.0,-99.9,29.94,NNW,342,8.0,13.0,-999,-99.99,,,-99.99,,2013-03-16 15:44:00,
2013-03-16 05:53:00,68.0,-99.9,29.95,North,349,6.0,13.0,-999,-99.99,,,-99.99,,2013-03-16 15:53:00,
2013-03-16 06:03:00,68.0,-99.9,29.96,NNW,335,6.0,12.0,-999,-99.99,,,-99.99,,2013-03-16 16:03:00,
2013-03-16 06:13:00,68.0,-99.9,29.96,NNW,343,6.0,12.0,-999,-99.99,,,-99.99,,2013-03-16 16:13:00,
2013-03-16 06:23:00,68.0,-99.9,29.96,NNW,340,7.0,11.0,-999,-99.99,,,-99.99,,2013-03-16 16:23:00,
2013-03-16 06:33:00,68.0,-99.9,29.96,NNW,343,5.0,9.0,-999,-99.99,,,-99.99,,2013-03-16 16:33:00,
2013-03-16 06:43:00,68.0,-99.9,29.97,NW,325,9.0,12.0,-999,-99.99,,,-99.99,,2013-03-16 16:43:00,
2013-03-16 06:53:00,68.0,-99.9,29.97,NNW,332,8.0,12.0,-999,-99.99,,,-99.99,,2013-03-16 16:53:00,
2013-03-16 07:03:00,68.0,-99.9,29.98,NNW,339,6.0,10.0,-999,-99.99,,,-99.99,,2013-03-16 17:03:00,
2013-03-16 07:13:00,68.0,-99.9,29.98,North,358,4.0,8.0,-999,-99.99,,,-99.99,,2013-03-16 17:13:00,
2013-03-16 07:23:00,68.0,-99.9,29.98,NNW,332,9.0,11.0,-999,-99.99,,,-99.99,,2013-03-16 17:23:00,
2013-03-16 07:33:00,68.0,-99.9,29.98,NNW,342,7.0,10.0,-999,-99.99,,,-99.99,,2013-03-16 17:33:00,
2013-03-16 07:43:00,68.0,-99.9,29.98,NNW,340,5.0,8.0,-999,-99.99,,,-99.99,,2013-03-16 17:43:00,
2013-03-16 07:53:00,68.0,-99.9,29.98,NNW,338,6.0,12.0,-999,-99.99,,,-99.99,,2013-03-16 17:53:00,
2013-03-16 08:03:00,69.0,-99.9,29.99,NNW,340,6.0,10.0,-999,-99.99,,,-99.99,,2013-03-16 18:03:00,
2013-03-16 08:13:00,69.0,-99.9,29.99,NNW,339,9.0,13.0,-999,-99.99,,,-99.99,,2013-03-16 18:13:00,
2013-03-16 08:23:00,69.0,-99.9,29.99,NNW,334,9.0,12.0,-999,-99.99,,,-99.99,,2013-03-16 18:23:00,
2013-03-16 08:33:00,69.0,-99.9,30.00,NNW,344,6.0,10.0,-999,-99.99,,,-99.99,,2013-03-16 18:33:00,
2013-03-16 08:43:00,69.0,-99.9,30.00,NNW,341,7.0,13.0,-999,-99.99,,,-99.99,,2013-03-16 18:43:00,
2013-03-16 08:53:00,69.0,-99.9,30.00,NNW,340,7.0,10.0,-999,-99.99,,,-99.99,,2013-03-16 18:53:00,
2013-03-16 09:02:00,69.0,-99.9,30.01,NNW,328,7.0,11.0,-999,-99.99,,,-99.99,,2013-03-16 19:02:00,
2013-03-16 09:12:00,70.0,-99.9,30.01,NW,323,10.0,13.0,-999,-99.99,,,-99.99,,2013-03-16 19:12:00,
2013-03-16 09:23:00,70.0,-99.9,30.01,NW,322,10.0,15.0,-999,-99.99,,,-99.99,,2013-03-16 19:23:00,
2013-03-16 09:33:00,70.0,-99.9,30.01,NNW,328,11.0,14.0,-999,-99.99,,,-99.99,,2013-03-16 19:33:00,
2013-03-16 09:42:00,70.0,-99.9,30.01,NW,316,11.0,15.0,-999,-99.99,,,-99.99,,2013-03-16 19:42:00,
2013-03-16 09:53:00,71.0,-99.9,30.01,NNW,341,8.0,14.0,-999,-99.99,,,-99.99,,2013-03-16 19:53:00,
2013-03-16 10:03:00,71.0,-99.9,30.01,NNW,344,6.0,12.0,-999,-99.99,,,-99.99,,2013-03-16 20:03:00,
2013-03-16 10:13:00,71.0,-99.9,30.01,North,2,6.0,12.0,-999,-99.99,,,-99.99,,2013-03-16 20:13:00,
2013-03-16 10:22:00,71.0,-99.9,30.01,North,6,7.0,12.0,-999,-99.99,,,-99.99,,2013-03-16 20:22:00,
2013-03-16 10:33:00,72.0,-99.9,30.01,NW,326,8.0,14.0,-999,-99.99,,,-99.99,,2013-03-16 20:33:00,
2013-03-16 10:43:00,72.0,-99.9,30.01,NW,325,13.0,22.0,-999,-99.99,,,-99.99,,2013-03-16 20:43:00,
2013-03-16 10:53:00,72.0,-99.9,30.01,NW,325,15.0,21.0,-999,-99.99,,,-99.99,,2013-03-16 20:53:00,
2013-03-16 11:02:00,72.0,-99.9,30.01,NNW,329,13.0,19.0,-999,-99.99,,,-99.99,,2013-03-16 21:02:00,
2013-03-16 11:12:00,72.0,-99.9,30.01,NW,321,11.0,19.0,-999,-99.99,,,-99.99,,2013-03-16 21:12:00,
2013-03-16 11:23:00,73.0,-99.9,30.00,NNW,341,10.0,15.0,-999,-99.99,,,-99.99,,2013-03-16 21:23:00,
2013-03-16 11:33:00,73.0,-99.9,30.00,NNW,332,11.0,18.0,-999,-99.99,,,-99.99,,2013-03-16 21:33:00,
2013-03-16 11:43:00,73.0,-99.9,30.00,NW,319,12.0,19.0,-999,-99.99,,,-99.99,,2013-03-16 21:43:00,
2013-03-16 11:53:00,73.0,-99.9,30.00,NW,316,13.0,17.0,-999,-99.99,,,-99.99,,2013-03-16 21:53:00,
2013-03-16 12:03:00,73.0,-99.9,29.99,NW,306,14.0,22.0,-999,-99.99,,,-99.99,,2013-03-16 22:03:00,
2013-03-16 12:13:00,73.0,-99.9,29.99,NW,325,11.0,20.0,-999,-99.99,,,-99.99,,2013-03-16 22:13:00,
2013-03-16 12:23:00,73.0,-99.9,29.99,NW,319,13.0,19.0,-999,-99.99,,,-99.99,,2013-03-16 22:23:00,
2013-03-16 12:33:00,73.0,-99.9,29.98,NW,307,14.0,19.0,-999,-99.99,,,-99.99,,2013-03-16 22:33:00,
2013-03-16 12:43:00,73.0,-99.9,29.98,NW,319,13.0,22.0,-999,-99.99,,,-99.99,,2013-03-16 22:43:00,
2013-03-16 12:53:00,73.0,-99.9,29.98,NW,321,13.0,22.0,-999,-99.99,,,-99.99,,2013-03-16 22:53:00,
2013-03-16 13:03:00,74.0,-99.9,29.97,NW,315,11.0,20.0,-999,-99.99,,,-99.99,,2013-03-16 23:03:00,
2013-03-16 13:13:00,74.0,-99.9,29.96,North,349,10.0,16.0,-999,-99.99,,,-99.99,,2013-03-16 23:13:00,
2013-03-16 13:23:00,74.0,-99.9,29.96,North,1,7.0,12.0,-999,-99.99,,,-99.99,,2013-03-16 23:23:00,
2013-03-16 13:33:00,73.0,-99.9,29.95,NW,309,16.0,20.0,-999,-99.99,,,-99.99,,2013-03-16 23:33:00,
2013-03-16 13:43:00,73.0,-99.9,29.96,NW,314,12.0,15.0,-999,-99.99,,,-99.99,,2013-03-16 23:43:00,
2013-03-16 13:53:00,74.0,-99.9,29.96,WNW,290,13.0,17.0,-999,-99.99,,,-99.99,,2013-03-16 23:53:00,
2013-03-16 14:02:00,74.0,-99.9,29.95,NW,307,11.0,15.0,-999,-99.99,,,-99.99,,2013-03-17 00:02:00,
2013-03-16 14:13:00,74.0,-99.9,29.95,NW,306,12.0,18.0,-999,-99.99,,,-99.99,,2013-03-17 00:13:00,
2013-03-16 14:23:00,74.0,-99.9,29.94,WNW,293,12.0,16.0,-999,-99.99,,,-99.99,,2013-03-17 00:23:00,
2013-03-16 14:33:00,74.0,-99.9,29.93,NW,325,11.0,18.0,-999,-99.99,,,-99.99,,2013-03-17 00:33:00,
2013-03-16 14:43:00,75.0,-99.9,29.93,North,-999,2.0,11.0,-999,-99.99,,,-99.99,,2013-03-17 00:43:00,
2013-03-16 14:53:00,75.0,-99.9,29.93,North,354,7.0,12.0,-999,-99.99,,,-99.99,,2013-03-17 00:53:00,
2013-03-16 15:03:00,76.0,-99.9,29.93,North,352,7.0,13.0,-999,-99.99,,,-99.99,,2013-03-17 01:03:00,
2013-03-16 15:12:00,75.0,-99.9,29.93,WNW,301,12.0,16.0,-999,-99.99,,,-99.99,,2013-03-17 01:12:00,
2013-03-16 15:23:00,74.0,-99.9,29.92,WNW,302,13.0,17.0,-999,-99.99,,,-99.99,,2013-03-17 01:23:00,
2013-03-16 15:33:00,75.0,-99.9,29.93,NW,320,8.0,17.0,-999,-99.99,,,-99.99,,2013-03-17 01:33:00,
2013-03-16 15:43:00,74.0,-99.9,29.93,NNW,329,8.0,15.0,-999,-99.99,,,-99.99,,2013-03-17 01:43:00,
2013-03-16 15:53:00,74.0,-99.9,29.92,WNW,298,11.0,13.0,-999,-99.99,,,-99.99,,2013-03-17 01:53:00,
2013-03-16 16:03:00,74.0,-99.9,29.93,NW,326,12.0,19.0,-999,-99.99,,,-99.99,,2013-03-17 02:03:00,
2013-03-16 16:13:00,74.0,-99.9,29.93,NW,309,14.0,17.0,-999,-99.99,,,-99.99,,2013-03-17 02:13:00,
2013-03-16 16:23:00,74.0,-99.9,29.93,NW,321,14.0,20.0,-999,-99.99,,,-99.99,,2013-03-17 02:23:00,
2013-03-16 16:33:00,75.0,-99.9,29.92,NNW,338,7.0,18.0,-999,-99.99,,,-99.99,,2013-03-17 02:33:00,
2013-03-16 16:43:00,74.0,-99.9,29.92,NW,318,16.0,22.0,-999,-99.99,,,-99.99,,2013-03-17 02:43:00,
2013-03-16 16:53:00,74.0,-99.9,29.92,NW,320,11.0,20.0,-999,-99.99,,,-99.99,,2013-03-17 02:53:00,
2013-03-16 17:03:00,74.0,-99.9,29.93,NW,318,15.0,20.0,-999,-99.99,,,-99.99,,2013-03-17 03:03:00,
2013-03-16 17:12:00,74.0,-99.9,29.93,NW,304,13.0,20.0,-999,-99.99,,,-99.99,,2013-03-17 03:12:00,
2013-03-16 17:23:00,74.0,-99.9,29.93,NW,322,15.0,19.0,-999,-99.99,,,-99.99,,2013-03-17 03:23:00,
2013-03-16 17:34:00,74.0,-99.9,29.93,NNW,329,10.0,19.0,-999,-99.99,,,-99.99,,2013-03-17 03:34:00,
2013-03-16 17:43:00,73.0,-99.9,29.94,NW,323,14.0,18.0,-999,-99.99,,,-99.99,,2013-03-17 03:43:00,
2013-03-16 17:53:00,74.0,-99.9,29.94,NNW,343,6.0,18.0,-999,-99.99,,,-99.99,,2013-03-17 03:53:00,
2013-03-16 18:03:00,74.0,-99.9,29.94,North,-999,8.0,12.0,-999,-99.99,,,-99.99,,2013-03-17 04:03:00,
2013-03-16 18:13:00,73.0,-99.9,29.95,NNW,338,8.0,14.0,-999,-99.99,,,-99.99,,2013-03-17 04:13:00,
2013-03-16 18:23:00,73.0,-99.9,29.95,NW,326,9.0,13.0,-999,-99.99,,,-99.99,,2013-03-17 04:23:00,
2013-03-16 18:33:00,73.0,-99.9,29.95,NE,44,2.0,8.0,-999,-99.99,,,-99.99,,2013-03-17 04:33:00,
2013-03-16 18:43:00,72.0,-99.9,29.96,ENE,63,4.0,8.0,-999,-99.99,,,-99.99,,2013-03-17 04:43:00,
2013-03-16 18:53:00,72.0,-99.9,29.97,NE,56,4.0,10.0,-999,-99.99,,,-99.99,,2013-03-17 04:53:00,
2013-03-16 19:03:00,72.0,-99.9,29.97,NE,52,4.0,9.0,-999,-99.99,,,-99.99,,2013-03-17 05:03:00,
2013-03-16 19:12:00,71.0,-99.9,29.98,NNW,345,5.0,9.0,-999,-99.99,,,-99.99,,2013-03-17 05:12:00,
2013-03-16 19:22:00,71.0,-99.9,29.98,NNW,333,4.0,8.0,-999,-99.99,,,-99.99,,2013-03-17 05:22:00,
2013-03-16 19:32:00,71.0,-99.9,29.98,North,358,3.0,6.0,-999,-99.99,,,-99.99,,2013-03-17 05:32:00,
2013-03-16 19:43:00,71.0,-99.9,29.98,NNW,347,4.0,8.0,-999,-99.99,,,-99.99,,2013-03-17 05:43:00,
2013-03-16 19:52:00,71.0,-99.9,29.99,NNW,341,3.0,6.0,-999,-99.99,,,-99.99,,2013-03-17 05:52:00,
2013-03-16 20:02:00,71.0,-99.9,30.00,NNW,339,3.0,8.0,-999,-99.99,,,-99.99,,2013-03-17 06:02:00,
2013-03-16 20:12:00,71.0,-99.9,29.99,North,356,3.0,6.0,-999,-99.99,,,-99.99,,2013-03-17 06:12:00,
2013-03-16 20:22:00,71.0,-99.9,30.00,NNW,336,2.0,5.0,-999,-99.99,,,-99.99,,2013-03-17 06:22:00,
2013-03-16 20:32:00,71.0,-99.9,30.01,North,354,3.0,4.0,-999,-99.99,,,-99.99,,2013-03-17 06:32:00,
2013-03-16 20:42:00,71.0,-99.9,30.01,NNW,332,4.0,6.0,-999,-99.99,,,-99.99,,2013-03-17 06:42:00,
2013-03-16 20:53:00,70.0,-99.9,30.02,NNW,345,4.0,6.0,-999,-99.99,,,-99.99,,2013-03-17 06:53:00,
2013-03-16 21:02:00,70.0,-99.9,30.02,NNW,336,4.0,5.0,-999,-99.99,,,-99.99,,2013-03-17 07:02:00,
2013-03-16 21:12:00,70.0,-99.9,30.03,North,352,3.0,6.0,-999,-99.99,,,-99.99,,2013-03-17 07:12:00,
2013-03-16 21:22:00,70.0,-99.9,30.03,NNW,347,4.0,6.0,-999,-99.99,,,-99.99,,2013-03-17 07:22:00,
2013-03-16 21:32:00,70.0,-99.9,30.04,NNW,340,4.0,6.0,-999,-99.99,,,-99.99,,2013-03-17 07:32:00,
2013-03-16 21:42:00,70.0,-99.9,30.03,North,351,4.0,6.0,-999,-99.99,,,-99.99,,2013-03-17 07:42:00,
2013-03-16 21:52:00,70.0,-99.9,30.03,NNW,348,4.0,6.0,-999,-99.99,,,-99.99,,2013-03-17 07:52:00,
2013-03-16 22:03:00,70.0,-99.9,30.03,North,358,3.0,6.0,-999,-99.99,,,-99.99,,2013-03-17 08:03:00,
2013-03-16 22:13:00,70.0,-99.9,30.03,North,11,3.0,7.0,-999,-99.99,,,-99.99,,2013-03-17 08:13:00,
2013-03-16 22:22:00,70.0,-99.9,30.03,NE,36,2.0,4.0,-999,-99.99,,,-99.99,,2013-03-17 08:22:00,
2013-03-16 22:33:00,69.0,-99.9,30.04,NNW,334,2.0,4.0,-999,-99.99,,,-99.99,,2013-03-17 08:33:00,
2013-03-16 22:42:00,70.0,-99.9,30.03,North,-999,2.0,4.0,-999,-99.99,,,-99.99,,2013-03-17 08:42:00,
2013-03-16 22:52:00,69.0,-99.9,30.03,ESE,118,-999.0,2.0,-999,-99.99,,,-99.99,,2013-03-17 08:52:00,
2013-03-16 23:03:00,70.0,-99.9,30.04,NW,311,3.0,4.0,-999,-99.99,,,-99.99,,2013-03-17 09:03:00,
2013-03-16 23:13:00,69.0,-99.9,30.03,NW,326,4.0,6.0,-999,-99.99,,,-99.99,,2013-03-17 09:13:00,
2013-03-16 23:22:00,69.0,-99.9,30.03,NNW,330,3.0,4.0,-999,-99.99,,,-99.99,,2013-03-17 09:22:00,
2013-03-16 23:33:00,69.0,-99.9,30.03,NNW,336,3.0,4.0,-999,-99.99,,,-99.99,,2013-03-17 09:33:00,
2013-03-16 23:43:00,69.0,-99.9,30.03,NNW,327,4.0,6.0,-999,-99.99,,,-99.99,,2013-03-17 09:43:00,
2013-03-16 23:53:00,69.0,-99.9,30.03,NNW,329,4.0,6.0,-999,-99.99,,,-99.99,,2013-03-17 09:53:00,